Location: Kernascl�den
(48.0062°N, 3.3198°W)
Time: 16:57:51
(UTC+00:00)

Helios 1A Rocket - Pass Details

Date: 21 January 2021
Orbit: 562 x 587 km, 98.3° (Epoch: 28 February)

Event Time Altitude Azimuth Distance (km) Brightness Sun altitude
Rises 18:38:27 0° 154° (SSE) 2,799 6.3 -16.8°
Reaches altitude 10° 18:40:37 10° 150° (SSE) 1,906 5.4 -17.1°
Maximum altitude 18:44:41 58° 72° (ENE) 691 2.9 -17.8°
Drops below altitude 10° 18:48:46 10° 353° (N) 1,923 5.6 -18.5°
Sets 18:50:58 0° 350° (N) 2,828 6.5 -18.8°
